Alma, MI

7:45 AM EST on November 15, 2019 (GMT -0500)
Gratiot Community

Weather History for KAMN - May, 2019

Change the Weather History Date:

Friday, May 24, 2019

  Actual Average Record
Temperature  
Mean Temperature 55 °F -  
Max Temperature 63 °F 72 °F 89 °F (1975)
Min Temperature 47 °F 48 °F 33 °F (1963)
Degree Days  
Heating Degree Days 10    
Growing Degree Days 5 (Base 50)    
Moisture  
Dew Point 51 °F    
Average Humidity 80    
Maximum Humidity 94    
Minimum Humidity 69    
Precipitation  
Precipitation 0.00 in - - ()
Sea Level Pressure  
Sea Level Pressure 30.12 in    
Wind  
Wind Speed 3 mph (East)    
Max Wind Speed 13 mph    
Max Gust Speed 18 mph    
Visibility 10 miles    
Events Rain    
Averages and records for this station are not official NWS values.
T = Trace of Precipitation, MM = Missing Value Source: NWS Daily Summary

Daily Weather History Graph

Daily Weather History Graph

Search for Another Location

Airport or City:

Astronomy

May. 24, 2019 Rise Set
Actual Time 6:06 AM EDT 9:05 PM EDT
Civil Twilight 5:32 AM EDT 9:39 PM EDT
Nautical Twilight 4:49 AM EDT 10:22 PM EDT
Astronomical Twilight 3:58 AM EDT 11:13 PM EDT
Moon 1:29 AM EDT (5/24) 11:07 AM EDT (5/24)
Length of Visible Light 16h 06m
Length of Day
14h 58m
Waning Gibbous, 69% of the Moon is Illuminated
May 24
Waning Gibbous
May 26
Last Quarter
Jun 3
New
Jun 10
First Quarter
Jun 17
Full

Hourly Weather History & Observations

Time (EDT) Temp. Dew Point Humidity Pressure Visibility Wind Dir Wind Speed Gust Speed Precip Events Conditions
12:15 AM 54.9 °F 47.7 °F 77% 30.09 in 10.0 mi West 4.6 mph - N/A   Clear
12:35 AM 54.7 °F 47.3 °F 76% 30.09 in 10.0 mi West 4.6 mph - N/A   Clear
12:55 AM 54.5 °F 47.3 °F 77% 30.09 in 10.0 mi WNW 4.6 mph - N/A   Clear
12:56 AM 54.3 °F 47.3 °F 77% 30.09 in 10.0 mi WNW 4.6 mph - N/A   Clear
1:15 AM 55.6 °F 47.7 °F 75% 30.08 in 10.0 mi WNW 3.5 mph - N/A   Clear
1:16 AM 55.6 °F 47.5 °F 74% 30.08 in 10.0 mi WNW 3.5 mph - N/A   Clear
1:35 AM 55.0 °F 47.3 °F 75% 30.09 in 10.0 mi WNW 3.5 mph - N/A   Clear
1:36 AM 55.0 °F 47.3 °F 75% 30.09 in 10.0 mi WNW 3.5 mph - N/A   Clear
1:55 AM 53.6 °F 47.3 °F 79% 30.09 in 10.0 mi West 3.5 mph - N/A   Clear
1:56 AM 53.4 °F 47.3 °F 80% 30.09 in 10.0 mi Calm Calm - N/A   Clear
2:15 AM 51.1 °F 46.2 °F 83% 30.09 in 10.0 mi Calm Calm - N/A   Clear
2:16 AM 50.9 °F 46.0 °F 83% 30.09 in 10.0 mi Calm Calm - N/A   Clear
2:36 AM 52.3 °F 48.2 °F 86% 30.09 in 10.0 mi NNW 4.6 mph - N/A   Clear
2:55 AM 52.2 °F 47.5 °F 84% 30.08 in 10.0 mi NNW 5.8 mph - N/A   Clear
2:56 AM 52.2 °F 47.5 °F 84% 30.08 in 10.0 mi NNW 5.8 mph - N/A   Clear
3:15 AM 52.7 °F 47.7 °F 83% 30.09 in 10.0 mi NW 4.6 mph - N/A   Clear
3:35 AM 52.2 °F 47.1 °F 83% 30.09 in 10.0 mi NW 3.5 mph - N/A   Clear
3:55 AM 51.1 °F 46.9 °F 86% 30.09 in 10.0 mi Calm Calm - N/A   Clear
4:15 AM 49.6 °F 46.9 °F 90% 30.10 in 10.0 mi West 3.5 mph - N/A   Clear
4:35 AM 49.1 °F 46.0 °F 89% 30.10 in 10.0 mi Calm Calm - N/A   Clear
4:36 AM 48.9 °F 45.9 °F 89% 30.10 in 10.0 mi Calm Calm - N/A   Clear
4:55 AM 47.1 °F 44.4 °F 90% 30.11 in 10.0 mi Calm Calm - N/A   Clear
4:56 AM 47.1 °F 44.2 °F 90% 30.10 in 10.0 mi Calm Calm - N/A   Clear
5:15 AM 47.8 °F 45.7 °F 92% 30.12 in 10.0 mi West 3.5 mph - N/A   Clear
5:16 AM 48.0 °F 46.0 °F 93% 30.12 in 10.0 mi Calm Calm - N/A   Clear
5:35 AM 49.3 °F 47.3 °F 93% 30.11 in 10.0 mi Calm Calm - N/A   Clear
5:36 AM 49.3 °F 47.1 °F 92% 30.11 in 10.0 mi Calm Calm - N/A   Clear
5:55 AM 49.1 °F 46.8 °F 92% 30.12 in 10.0 mi Calm Calm - N/A   Clear
6:15 AM 48.6 °F 46.4 °F 92% 30.12 in 10.0 mi Calm Calm - N/A   Clear
6:35 AM 49.5 °F 47.5 °F 93% 30.14 in 10.0 mi Calm Calm - N/A   Clear
6:55 AM 50.2 °F 48.4 °F 94% 30.14 in 10.0 mi Calm Calm - N/A   Clear
7:15 AM 52.0 °F 49.8 °F 92% 30.15 in 10.0 mi Calm Calm - N/A   Clear
7:16 AM 52.0 °F 49.8 °F 92% 30.15 in 10.0 mi Calm Calm - N/A   Clear
7:35 AM 52.7 °F 50.2 °F 91% 30.16 in 10.0 mi Calm Calm - N/A   Clear
7:36 AM 52.7 °F 50.2 °F 91% 30.16 in 10.0 mi Calm Calm - N/A   Clear
7:55 AM 54.1 °F 51.4 °F 91% 30.18 in 10.0 mi Calm Calm - N/A   Clear
7:56 AM 54.1 °F 51.4 °F 91% 30.18 in 10.0 mi Calm Calm - N/A   Clear
8:15 AM 55.2 °F 51.4 °F 87% 30.19 in 10.0 mi Calm Calm - N/A   Clear
8:16 AM 55.2 °F 51.4 °F 87% 30.19 in 10.0 mi Calm Calm - N/A   Clear
8:35 AM 56.3 °F 51.4 °F 84% 30.19 in 10.0 mi North 3.5 mph - N/A   Clear
8:36 AM 56.3 °F 51.3 °F 83% 30.19 in 10.0 mi North 3.5 mph - N/A   Clear
8:55 AM 56.7 °F 50.9 °F 81% 30.20 in 10.0 mi North 3.5 mph - N/A   Clear
9:15 AM 56.7 °F 50.5 °F 80% 30.21 in 10.0 mi Calm Calm - N/A   Clear
9:35 AM 57.2 °F 50.5 °F 78% 30.21 in 10.0 mi Calm Calm - N/A   Clear
9:55 AM 57.2 °F 50.7 °F 79% 30.20 in 10.0 mi Calm Calm - N/A   Clear
10:15 AM 57.4 °F 51.1 °F 79% 30.18 in 10.0 mi ESE 3.5 mph - N/A   Scattered Clouds
10:16 AM 57.4 °F 51.1 °F 79% 30.17 in 10.0 mi East 3.5 mph - N/A   Scattered Clouds
10:35 AM 58.1 °F 51.6 °F 79% 30.16 in 10.0 mi East 5.8 mph - N/A   Scattered Clouds
10:55 AM 58.1 °F 51.4 °F 78% 30.14 in 10.0 mi East 5.8 mph - N/A   Scattered Clouds
10:56 AM 58.1 °F 51.4 °F 78% 30.14 in 10.0 mi East 5.8 mph - N/A   Scattered Clouds
11:15 AM 59.2 °F 52.7 °F 79% 30.14 in 10.0 mi Calm Calm - N/A   Mostly Cloudy
11:16 AM 59.2 °F 52.7 °F 79% 30.14 in 10.0 mi Calm Calm - N/A   Mostly Cloudy
11:35 AM 60.6 °F 52.0 °F 73% 30.12 in 10.0 mi ENE 5.8 mph - N/A   Scattered Clouds
11:36 AM 60.6 °F 52.2 °F 74% 30.13 in 10.0 mi ENE 6.9 mph - N/A   Scattered Clouds
11:55 AM 60.4 °F 51.8 °F 73% 30.12 in 10.0 mi East 4.6 mph - N/A   Clear
11:56 AM 60.6 °F 52.0 °F 73% 30.12 in 10.0 mi East 4.6 mph - N/A   Clear
12:15 PM 59.9 °F 51.1 °F 73% 30.16 in 10.0 mi Calm Calm - N/A   Mostly Cloudy
12:35 PM 60.4 °F 51.4 °F 72% 30.18 in 10.0 mi Calm Calm - N/A   Overcast
12:55 PM 60.4 °F 51.8 °F 73% 30.17 in 10.0 mi Calm Calm - N/A   Light Drizzle
1:15 PM 60.4 °F 52.2 °F 74% 30.18 in 10.0 mi Calm Calm - N/A   Overcast
1:35 PM 61.2 °F 52.0 °F 72% 30.18 in 10.0 mi Calm Calm - N/A   Overcast
1:55 PM 60.8 °F 51.6 °F 72% 30.17 in 10.0 mi Calm Calm - N/A   Overcast
1:56 PM 60.8 °F 51.6 °F 72% 30.17 in 10.0 mi Calm Calm - N/A   Overcast
2:15 PM 61.0 °F 51.8 °F 72% 30.18 in 10.0 mi Calm Calm - N/A   Overcast
2:16 PM 61.0 °F 51.8 °F 72% 30.17 in 10.0 mi Calm Calm - N/A   Overcast
2:35 PM 61.7 °F 52.2 °F 71% 30.17 in 10.0 mi Calm Calm - N/A   Overcast
2:36 PM 61.7 °F 52.0 °F 70% 30.17 in 10.0 mi Calm Calm - N/A   Overcast
2:55 PM 63.0 °F 52.5 °F 69% 30.17 in 10.0 mi East 3.5 mph - N/A   Overcast
2:56 PM 63.0 °F 52.5 °F 69% 30.17 in 10.0 mi Calm Calm - N/A   Overcast
3:15 PM 62.6 °F 52.5 °F 70% 30.17 in 10.0 mi Calm Calm - N/A   Overcast
3:35 PM 61.9 °F 52.2 °F 70% 30.19 in 10.0 mi Calm Calm - N/A   Overcast
3:36 PM 61.9 °F 52.2 °F 70% 30.19 in 10.0 mi SSW 3.5 mph - N/A   Overcast
3:55 PM 61.9 °F 53.2 °F 73% 30.12 in 7.0 mi East 8.1 mph - N/A   Light Drizzle
4:15 PM 63.5 °F 53.6 °F 70% 30.11 in 10.0 mi ESE 5.8 mph - N/A   Scattered Clouds
4:35 PM 63.0 °F 53.6 °F 71% 30.11 in 10.0 mi ESE 9.2 mph - N/A   Clear
4:55 PM 63.3 °F 53.6 °F 71% 30.10 in 10.0 mi SE 10.4 mph - N/A Rain Light Rain
4:56 PM 63.1 °F 53.6 °F 71% 30.10 in 10.0 mi SE 8.1 mph - N/A Rain Light Rain
5:15 PM 61.9 °F 54.1 °F 76% 30.10 in 10.0 mi SSE 9.2 mph - N/A   Mostly Cloudy
5:16 PM 61.9 °F 54.1 °F 76% 30.10 in 10.0 mi SSE 10.4 mph - N/A   Mostly Cloudy
5:35 PM 62.1 °F 54.7 °F 77% 30.10 in 10.0 mi SE 11.5 mph - N/A   Mostly Cloudy
5:36 PM 62.1 °F 54.7 °F 77% 30.09 in 10.0 mi SE 11.5 mph - N/A   Mostly Cloudy
5:55 PM 62.6 °F 55.4 °F 77% 30.08 in 10.0 mi East 9.2 mph - N/A   Scattered Clouds
5:56 PM 62.6 °F 55.4 °F 77% 30.06 in 10.0 mi ESE 12.7 mph 18.4 mph N/A   Scattered Clouds
6:15 PM 63.0 °F 55.4 °F 76% 30.12 in 10.0 mi Calm Calm - N/A   Scattered Clouds
6:35 PM 62.6 °F 55.0 °F 76% 30.09 in 10.0 mi ESE 8.1 mph - N/A   Scattered Clouds
6:36 PM 62.6 °F 55.0 °F 76% 30.09 in 10.0 mi ESE 6.9 mph - N/A   Scattered Clouds
6:55 PM 62.6 °F 54.9 °F 76% 30.07 in 10.0 mi ESE 9.2 mph - N/A   Clear
7:15 PM 62.8 °F 54.7 °F 75% 30.08 in 10.0 mi ESE 8.1 mph - N/A   Clear
7:35 PM 62.4 °F 54.7 °F 76% 30.08 in 10.0 mi ESE 4.6 mph - N/A   Clear
7:55 PM 62.1 °F 54.7 °F 77% 30.08 in 10.0 mi ESE 6.9 mph - N/A   Clear
7:56 PM 62.1 °F 54.7 °F 77% 30.08 in 10.0 mi ESE 5.8 mph - N/A   Clear
8:15 PM 61.7 °F 54.5 °F 77% 30.07 in 10.0 mi ESE 5.8 mph - N/A   Scattered Clouds
8:35 PM 61.3 °F 54.5 °F 78% 30.07 in 10.0 mi East 4.6 mph - N/A   Scattered Clouds
8:36 PM 61.2 °F 54.5 °F 79% 30.06 in 10.0 mi East 4.6 mph - N/A   Scattered Clouds
8:55 PM 60.6 °F 54.5 °F 80% 30.06 in 10.0 mi ESE 4.6 mph - N/A   Clear
8:56 PM 60.6 °F 54.5 °F 80% 30.06 in 10.0 mi ESE 5.8 mph - N/A   Clear
9:15 PM 60.3 °F 54.5 °F 81% 30.06 in 10.0 mi East 3.5 mph - N/A   Clear
9:16 PM 60.3 °F 54.5 °F 81% 30.06 in 10.0 mi East 4.6 mph - N/A   Clear
9:35 PM 59.7 °F 54.7 °F 83% 30.06 in 10.0 mi Calm Calm - N/A   Mostly Cloudy
9:36 PM 59.7 °F 54.7 °F 83% 30.06 in 10.0 mi Calm Calm - N/A   Mostly Cloudy
9:55 PM 60.3 °F 55.4 °F 84% 30.06 in 10.0 mi East 3.5 mph - N/A   Overcast
9:56 PM 60.3 °F 55.4 °F 84% 30.06 in 10.0 mi East 3.5 mph - N/A   Overcast
10:15 PM 60.6 °F 55.4 °F 83% 30.05 in 10.0 mi East 4.6 mph - N/A   Overcast
10:35 PM 60.6 °F 55.6 °F 83% 30.05 in 10.0 mi East 3.5 mph - N/A   Mostly Cloudy
10:55 PM 61.3 °F 55.9 °F 82% 30.05 in 10.0 mi Calm Calm - N/A   Overcast
11:15 PM 61.3 °F 56.3 °F 83% 30.05 in 10.0 mi Calm Calm - N/A   Overcast
11:35 PM 60.4 °F 56.5 °F 87% 30.03 in 10.0 mi East 5.8 mph - N/A   Overcast
11:55 PM 60.8 °F 56.5 °F 86% 30.01 in 10.0 mi East 5.8 mph - N/A   Overcast
11:56 PM 60.8 °F 56.5 °F 86% 30.01 in 10.0 mi East 6.9 mph - N/A   Overcast